Telfer, Australia

8:41 PM AWST on January 19, 2018 (GMT +0800)
Telfer

Weather History for YTEF - December, 2012

Change the Weather History Date:

Friday, December 14, 2012

  Actual Average Record
Temperature  
Mean Temperature 87 °F -  
Max Temperature 99 °F - - ()
Min Temperature 75 °F - - ()
Cooling Degree Days 22    
Growing Degree Days 37 (Base 50)    
Moisture  
Dew Point 65 °F    
Average Humidity 49    
Maximum Humidity 78    
Minimum Humidity 21    
Precipitation  
Precipitation 0.00 in - - ()
Sea Level Pressure  
Sea Level Pressure 29.84 in    
Wind  
Wind Speed 6 mph ()    
Max Wind Speed 18 mph    
Max Gust Speed -    
T = Trace of Precipitation, MM = Missing Value Source: Averaged Metar Reports

Daily Weather History Graph

Daily Weather History Graph

Search for Another Location

Airport or City:

Trip Planner

Search our weather history database for the weather conditions in past years. The results will help you decide how hot, cold, wet, or windy it might be!

Date:

Astronomy

Dec. 14, 2012 Rise Set
Actual Time 5:02 AM AWST 6:29 PM AWST
Civil Twilight 4:37 AM AWST 6:54 PM AWST
Nautical Twilight 4:07 AM AWST 7:23 PM AWST
Astronomical Twilight 3:36 AM AWST 7:54 PM AWST
Moon 5:45 AM AWST (12/14) 7:25 PM AWST (12/14)
Length of Visible Light 14h 16m
Length of Day
13h 26m
New Moon, 1% of the Moon is Illuminated
Dec 14
New Moon
Dec 20
First Quarter
Dec 28
Full
Jan 5
Last Quarter
Jan 12
New

Hourly Weather History & Observations

Time (AWST) Temp. Heat Index Dew Point Humidity Pressure Visibility Wind Dir Wind Speed Gust Speed Precip Events Conditions
12:00 AM 81 °F - 66 °F 52% 29.83 in - North 6.9 mph - -  
12:00 AM 80.6 °F 82.7 °F 66.2 °F 61% 29.89 in - North 6.9 mph - N/A   Unknown
1:00 AM 80.6 °F 82.7 °F 66.2 °F 61% 29.86 in - North 8.1 mph - N/A   Unknown
2:00 AM 80 °F - 68 °F 58% 29.81 in - NNW 2.3 mph - -  
2:00 AM 80.6 °F 83.2 °F 68.0 °F 65% 29.86 in - NNW 2.3 mph - N/A   Unknown
3:00 AM 78 °F - 69 °F 66% 29.82 in - SSE 6.9 mph - -  
3:00 AM 78.8 °F - 68.0 °F 69% 29.86 in - SSE 6.9 mph - N/A   Unknown
4:00 AM 77.0 °F - 68.0 °F 74% 29.86 in - SSE 9.2 mph - N/A   Unknown
5:00 AM 75 °F - 67 °F 71% 29.81 in - SE 6.9 mph - -  
5:00 AM 75.2 °F - 68.0 °F 78% 29.86 in - SE 6.9 mph - N/A   Unknown
6:00 AM 77 °F - 68 °F 67% 29.83 in - SE 4.6 mph - -  
6:00 AM 77.0 °F - 68.0 °F 74% 29.89 in - SE 4.6 mph - N/A   Unknown
8:00 AM 87 °F - 67 °F 41% 29.85 in - NE 6.9 mph - -  
9:00 AM 89 °F - 66 °F 36% 29.85 in - NNW 4.6 mph - -  
9:00 AM 89.6 °F 92.2 °F 66.2 °F 46% 29.92 in - NNW 4.6 mph - N/A   Unknown
10:00 AM 93.2 °F 96.2 °F 66.2 °F 41% 29.89 in - SW 5.8 mph - N/A   Unknown
11:00 AM 95 °F - 62 °F 24% 29.83 in - SW 6.9 mph - -  
11:00 AM 95.0 °F 96.0 °F 62.6 °F 34% 29.89 in - SW 6.9 mph - N/A   Unknown
12:00 PM 95 °F - 59 °F 21% 29.81 in - SW 6.9 mph - -  
12:00 PM 95.0 °F 94.4 °F 59.0 °F 30% 29.86 in - SW 6.9 mph - N/A   Unknown
12:21 PM 86.0 °F 90.4 °F 69.8 °F 58% 29.86 in - WNW 18.4 mph - N/A   Unknown
1:00 PM 86.0 °F 86.6 °F 62.6 °F 45% 29.86 in - North 11.5 mph - N/A   Unknown
2:00 PM 94 °F - 58 °F 21% 29.77 in - North 4.6 mph - -  
2:00 PM 93.2 °F 92.6 °F 59.0 °F 32% 29.83 in - North 4.6 mph - N/A   Unknown
3:00 PM 89 °F - 62 °F 30% 29.78 in - WSW 16.1 mph - -  
3:00 PM 89.6 °F 90.1 °F 62.6 °F 40% 29.83 in - WSW 16.1 mph - N/A   Unknown
4:00 PM 86.0 °F 88.2 °F 66.2 °F 51% 29.83 in - SSW 11.5 mph - N/A   Unknown
5:00 PM 87 °F - 66 °F 40% 29.75 in - SSE 6.9 mph - -  
5:00 PM 87.8 °F 90.4 °F 66.2 °F 49% 29.80 in - SSE 6.9 mph - N/A   Unknown
6:00 PM 88 °F - 64 °F 34% 29.75 in - ESE 4.6 mph - -  
6:00 PM 87.8 °F 89.4 °F 64.4 °F 46% 29.80 in - ESE 4.6 mph - N/A   Unknown
7:00 PM 86.0 °F 87.3 °F 64.4 °F 48% 29.83 in - Calm Calm - N/A   Unknown
8:00 PM 86 °F - 67 °F 43% 29.82 in - South 1.2 mph - -  
8:00 PM 86.0 °F 88.2 °F 66.2 °F 51% 29.89 in - South 1.2 mph - N/A   Unknown
9:00 PM 85 °F - 67 °F 44% 29.85 in - North 9.2 mph - -  
9:00 PM 84.2 °F 86.6 °F 66.2 °F 55% 29.89 in - North 9.2 mph - N/A   Unknown
10:00 PM 82.4 °F 84.6 °F 66.2 °F 58% 29.92 in - NE 4.6 mph - N/A   Unknown
11:00 PM 82 °F - 68 °F 53% 29.84 in - NNW 5.8 mph - -  
11:00 PM 82.4 °F 85.4 °F 68.0 °F 62% 29.89 in - NNW 5.8 mph - N/A   Unknown